Williston, ND

11:40 AM CDT on October 14, 2019 (GMT -0500)
Sloulin International

Weather History for KISN - August, 2019

Change the Weather History Date:

Friday, August 9, 2019

  Actual Average Record
Temperature  
Mean Temperature 75 °F 71 °F  
Max Temperature 86 °F 86 °F 99 °F (1940)
Min Temperature 63 °F 56 °F 38 °F (1966)
Degree Days  
Heating Degree Days 0 1  
Month to date heating degree days 1 9  
Since 1 June heating degree days 86 153  
Since 1 July heating degree days 16 33  
Cooling Degree Days 10 7  
Month to date cooling degree days 72 63  
Year to date cooling degree days 316 326  
Since 1 June cooling degree days 310 313  
Growing Degree Days 24 (Base 50)    
Moisture  
Dew Point 60 °F    
Average Humidity 65    
Maximum Humidity 79    
Minimum Humidity 51    
Precipitation  
Precipitation T in 0.05 in 0.69 in (1913)
Month to date precipitation 0.55 0.44  
Year to date precipitation 10.21 10.11  
Sea Level Pressure  
Sea Level Pressure 29.86 in    
Wind  
Wind Speed 8 mph (ESE)    
Max Wind Speed 14 mph    
Max Gust Speed 20 mph    
Visibility 10 miles    
Events      
T = Trace of Precipitation, MM = Missing Value Source: NWS Daily Summary

Daily Weather History Graph

Daily Weather History Graph

Search for Another Location

Airport or City:

Astronomy

Aug. 09, 2019 Rise Set
Actual Time 6:40 AM CDT 9:18 PM CDT
Civil Twilight 6:05 AM CDT 9:53 PM CDT
Nautical Twilight 5:20 AM CDT 10:38 PM CDT
Astronomical Twilight 4:27 AM CDT 11:30 PM CDT
Moon 5:08 PM CDT (8/9) 1:36 AM CDT (8/9)
Length of Visible Light 15h 48m
Length of Day
14h 38m
Waxing Gibbous, 70% of the Moon is Illuminated
Aug 9
Waxing Gibbous
Aug 15
Full
Aug 23
Last Quarter
Aug 30
New
Sep 5
First Quarter

Hourly Weather History & Observations

Time (CDT) Temp. Heat Index Dew Point Humidity Pressure Visibility Wind Dir Wind Speed Gust Speed Precip Events Conditions
12:52 AM 68.0 °F - 51.1 °F 55% 29.94 in 10.0 mi East 5.8 mph - N/A   Mostly Cloudy
1:52 AM 66.0 °F - 51.1 °F 59% 29.93 in 10.0 mi ENE 6.9 mph - N/A   Clear
2:52 AM 66.0 °F - 51.1 °F 59% 29.92 in 10.0 mi East 4.6 mph - N/A   Mostly Cloudy
3:52 AM 66.9 °F - 50.0 °F 54% 29.89 in 10.0 mi East 5.8 mph - N/A   Mostly Cloudy
4:52 AM 66.0 °F - 52.0 °F 60% 29.88 in 10.0 mi SE 10.4 mph - N/A   Scattered Clouds
5:52 AM 64.0 °F - 55.0 °F 73% 29.89 in 10.0 mi ENE 3.5 mph - N/A   Clear
6:52 AM 63.0 °F - 55.9 °F 78% 29.88 in 10.0 mi Calm Calm - 0.00 in   Clear
7:52 AM 64.9 °F - 57.9 °F 78% 29.88 in 10.0 mi SE 4.6 mph - N/A   Clear
8:52 AM 70.0 °F - 59.0 °F 68% 29.87 in 10.0 mi East 8.1 mph - N/A   Clear
9:52 AM 73.9 °F - 60.1 °F 62% 29.87 in 10.0 mi SE 9.2 mph - N/A   Clear
10:52 AM 73.0 °F - 61.0 °F 66% 29.86 in 10.0 mi East 8.1 mph - N/A   Clear
11:52 AM 79.0 °F - 62.1 °F 56% 29.85 in 10.0 mi ESE 10.4 mph - N/A   Clear
12:52 PM 81.0 °F 81.9 °F 62.1 °F 52% 29.83 in 10.0 mi ESE 9.2 mph - N/A   Clear
1:52 PM 84.0 °F 85.4 °F 64.0 °F 51% 29.83 in 10.0 mi SSE 12.7 mph - N/A   Clear
2:52 PM 82.0 °F 83.4 °F 64.0 °F 54% 29.82 in 10.0 mi SSE 8.1 mph - N/A   Clear
3:52 PM 82.9 °F 84.0 °F 63.0 °F 51% 29.82 in 10.0 mi SE 10.4 mph - N/A   Clear
4:52 PM 81.0 °F 82.5 °F 64.0 °F 56% 29.82 in 10.0 mi ESE 9.2 mph - N/A   Clear
5:52 PM 84.0 °F 85.4 °F 64.0 °F 51% 29.81 in 10.0 mi East 9.2 mph - N/A   Clear
6:52 PM 84.0 °F 86.3 °F 66.0 °F 55% 29.81 in 10.0 mi ESE 10.4 mph - N/A   Clear
7:52 PM 81.0 °F 83.0 °F 66.0 °F 60% 29.81 in 10.0 mi East 10.4 mph - N/A   Clear
8:52 PM 78.1 °F - 66.0 °F 66% 29.81 in 10.0 mi ESE 10.4 mph - N/A   Clear
9:52 PM 73.9 °F - 64.9 °F 73% 29.83 in 10.0 mi East 8.1 mph - N/A   Clear
10:52 PM 73.0 °F - 64.9 °F 76% 29.85 in 10.0 mi East 5.8 mph - N/A   Clear
11:52 PM 72.0 °F - 64.9 °F 78% 29.84 in 10.0 mi ESE 4.6 mph - N/A   Clear